OneWeb SL0366

operational
NORAD ID: 49292 Int'l Des: 2021-090 Owner: ONEWEBN Country: UK Constellation: oneweb
LEOCIRCULARPOLARONEWEB_TYPE

About OneWeb SL0366

Description loading...

Live Position

Loading 3D Globe...

Upcoming Passes

Altitude History

Altitude vs Time

uPlot chart will show altitude changes over time

Two-Line Element Set

1 49292U 21090P 25258.19397840 -.00000157 00000-0 -45755-3 0 9995
2 49292 87.9085 344.4751 0001937 99.3055 260.8294 13.14503427191433
Epoch: Sep 15, 2025 • Age: 10 hours

Current Status

Altitude 1217.3 km
Velocity 7.24 km/s
Sub-Earth Point -29.31°S, 52.01°W
Launch Date Oct 14, 2021
Age 3.9 years
Type internet

Technical Details

Classification Payload
Mass 148.00 kg
Dry Mass 140.00 kg
Total Mass 148.00 kg
Length 1.30 m
Diameter 1.00 m
Span 5.00 m
Shape Trapezoid+2 pan
Manufacturer ONEWUS
Bus Type ARROW
Phase Status In Orbit
Owner/State ONEWEBN/UK

Large Constellations

Loading constellations...